RH
98 97 97 98 84 72 64 60 57 54 47 47 50 55 47 42 39 31 30 34 38 48 43 44 52 57 61 67 74 85 93 94 93 91 89 92 90 93
90 92 90 76 57 51 53 52 50 48 47 42 48 49 41 30 29 24 23 23 32 37 33 34 38 44 57 66 72 79 86 90 91 91 92 96 97 96
76 72 67 54 50 50 51 52 49 45 47 43 43 44 39 33 30 28 24 25 26 29 25 18 20 29 43 51 64 76 85 84 85 89 89 93 98 99
62 56 54 52 48 52 53 55 50 51 52 47 46 44 38 33 32 26 23 25 26 27 26 19 16 18 22 28 42 66 82 86 86 83 82 87 90 94
62 57 55 53 49 48 52 54 56 52 52 49 48 48 43 34 27 24 28 24 25 26 25 24 24 20 19 22 24 38 50 68 82 79 83 82 80 83
70 65 62 59 56 50 51 55 55 54 53 52 54 50 43 33 30 29 25 22 27 26 22 27 26 25 25 24 23 21 27 37 48 61 66 71 74 70
75 73 70 67 66 62 61 55 53 57 57 57 60 54 42 37 34 30 30 27 26 23 29 29 26 27 29 37 28 24 23 20 23 37 45 54 57 57
82 75 71 71 72 69 65 62 63 65 58 55 52 50 47 40 35 32 31 30 28 21 25 23 25 25 26 26 26 25 23 22 18 16 23 33 42 49
85 83 77 73 70 59 52 47 48 52 50 48 47 45 43 40 38 33 32 30 28 27 25 24 23 24 25 31 23 19 21 21 21 19 17 17 21 32
73 70 64 61 51 45 42 43 45 44 42 44 43 44 38 32 30 29 29 27 27 26 25 25 25 25 25 25 27 23 22 22 22 21 18 17 17 18
61 58 49 42 35 32 29 34 33 34 33 28 25 24 20 17 18 23 23 26 28 25 25 27 24 21 22 29 32 27 25 27 28 29 26 23 21 21
43 42 38 30 26 23 21 26 25 24 15 15 19 22 27 28 29 29 28 28 28 28 27 32 31 33 33 32 29 31 30 30 31 34 32 32 32 28
34 32 30 22 19 16 16 21 20 16 20 24 20 18 18 19 26 28 30 38 33 29 34 31 27 28 35 37 31 29 32 34 30 30 34 34 33 33
26 25 19 17 17 19 22 20 21 23 24 24 25 25 24 21 18 20 24 28 37 38 40 42 37 36 35 36 35 33 34 36 34 34 33 32 33 35
19 20 24 25 25 25 25 26 27 28 30 30 32 33 35 34 29 30 30 31 35 43 49 50 46 40 41 40 40 40 40 38 37 37 36 34 34 36
19 25 26 27 28 28 30 31 32 34 34 35 34 37 40 41 40 43 44 44 44 44 41 44 45 48 49 47 46 44 45 44 39 41 40 38 37 38
18 25 27 28 29 30 32 35 36 39 40 42 43 44 46 49 51 56 58 57 60 56 50 49 51 56 60 59 56 54 51 50 46 44 44 42 40 39
23 24 27 29 31 34 36 39 44 48 50 52 53 55 55 59 60 64 68 69 68 67 66 65 68 64 69 66 64 60 59 56 54 52 49 45 43 40
25 24 27 31 35 39 45 49 52 57 61 64 66 65 65 68 73 79 74 81 79 76 76 76 76 76 73 70 72 70 67 66 62 59 55 52 46 42
29 30 30 36 42 44 45 50 58 65 69 73 76 76 78 81 82 83 85 81 81 87 84 86 84 83 80 78 79 78 78 75 68 66 61 54 48 46
36 39 37 37 43 42 45 53 62 71 79 86 89 91 89 84 87 91 90 88 91 86 89 88 90 91 90 89 87 85 84 78 74 69 62 56 52 49
42 44 42 40 44 45 50 58 67 82 95 95 93 91 90 93 94 94 97 96 96 98 98 98 96 97 97 96 93 90 88 82 77 71 65 60 58 54
50 54 51 44 45 53 61 68 76 88 98 97 96 94 95 97 97 98 98 98 98 98 98 98 98 98 98 98 96 92 89 84 81 76 72 68 65 64